Hermosillo, Mexico

1:51 AM MST on January 21, 2018 (GMT -0700)
Gen Ignacio Pesqueira Garcia

Weather History for MMHO - November, 2012

Change the Weather History Date:

Thursday, November 22, 2012

  Actual Average Record
Temperature  
Mean Temperature 72 °F -  
Max Temperature 87 °F 76 °F 99 °F (2017)
Min Temperature 56 °F 46 °F 48 °F (2010)
Cooling Degree Days 6    
Growing Degree Days 22 (Base 50)    
Moisture  
Dew Point 48 °F    
Average Humidity 47    
Maximum Humidity 77    
Minimum Humidity 14    
Precipitation  
Precipitation 0.00 in - - ()
Sea Level Pressure  
Sea Level Pressure 30.01 in    
Wind  
Wind Speed 2 mph ()    
Max Wind Speed 8 mph    
Max Gust Speed -    
Visibility 9.1 miles    
Events      
Averages and records for this station are not official NWS values.
T = Trace of Precipitation, MM = Missing Value Source: Averaged Metar Reports

Daily Weather History Graph

Daily Weather History Graph

Search for Another Location

Airport or City:

Trip Planner

Search our weather history database for the weather conditions in past years. The results will help you decide how hot, cold, wet, or windy it might be!

Date:

Astronomy

Nov. 22, 2012 Rise Set
Actual Time 6:53 AM MST 5:27 PM MST
Civil Twilight 6:28 AM MST 5:52 PM MST
Nautical Twilight 5:59 AM MST 6:21 PM MST
Astronomical Twilight 5:30 AM MST 6:49 PM MST
Moon 1:53 PM MST (11/22) 1:40 AM MST (11/22)
Length of Visible Light 11h 24m
Length of Day
10h 33m
Waxing Gibbous, 72% of the Moon is Illuminated
Nov 22
Waxing Gibbous
Nov 28
Full
Dec 6
Last Quarter
Dec 13
New
Dec 19
First Quarter

Hourly Weather History & Observations

Time (MST) Temp. Dew Point Humidity Pressure Visibility Wind Dir Wind Speed Gust Speed Precip Events Conditions
12:43 AM 64.4 °F 53.6 °F 68% 29.99 in 10.0 mi Calm Calm - N/A   Scattered Clouds
1:30 AM 65 °F 53 °F 55% 29.98 in 5 mi East 2.2 mph - -  
1:44 AM 62.6 °F 53.6 °F 72% 29.96 in 10.0 mi Calm Calm - N/A   Scattered Clouds
2:43 AM 62.6 °F 53.6 °F 72% 29.99 in 10.0 mi Calm Calm - N/A   Scattered Clouds
3:43 AM 62.6 °F 51.8 °F 68% 29.98 in 10.0 mi Calm Calm - N/A   Scattered Clouds
4:30 AM 60 °F 48 °F 55% 29.97 in 5 mi East 2.2 mph - -  
4:46 AM 59.0 °F 51.8 °F 77% 29.96 in 10.0 mi Calm Calm - N/A   Scattered Clouds
5:43 AM 57.2 °F 50.0 °F 77% 30.00 in 10.0 mi Calm Calm - N/A   Scattered Clouds
6:42 AM 57.2 °F 48.2 °F 72% 30.01 in 10.0 mi Calm Calm - N/A   Clear
7:35 AM 56 °F 43 °F 51% 30.03 in 7 mi ESE 2.2 mph - -   Scattered Clouds
7:43 AM 57.2 °F 50.0 °F 77% 30.01 in 10.0 mi Calm Calm - N/A   Clear
8:47 AM 66.2 °F 46.4 °F 49% 30.05 in 10.0 mi Calm Calm - N/A   Clear
9:46 AM 73.4 °F 48.2 °F 41% 30.07 in 10.0 mi Calm Calm - N/A   Clear
10:43 AM 78.8 °F 46.4 °F 32% 30.03 in 10.0 mi SE 3.5 mph - N/A   Clear
11:53 AM 82.4 °F 42.8 °F 25% 30.03 in 10.0 mi ENE 4.6 mph - N/A   Clear
12:42 PM 84.2 °F 41.0 °F 22% 30.01 in 10.0 mi SE 5.8 mph - N/A   Clear
1:41 PM 86.0 °F 41.0 °F 20% 29.96 in 10.0 mi South 4.6 mph - N/A   Partly Cloudy
1:45 PM 85 °F 44 °F 14% 29.97 in 7 mi SSW 2.2 mph - -   Clear
2:43 PM 87.8 °F 42.8 °F 21% 29.98 in 10.0 mi SSW 5.8 mph - N/A   Scattered Clouds
3:46 PM 87.8 °F 41.0 °F 19% 29.98 in 10.0 mi SW 4.6 mph - N/A   Scattered Clouds
4:40 PM 85 °F 44 °F 14% 29.95 in 7 mi SW 2.2 mph - -  
4:52 PM 86.0 °F 41.0 °F 20% 29.98 in 10.0 mi SSW 8.1 mph - N/A   Scattered Clouds
5:43 PM 80.6 °F 42.8 °F 26% 29.99 in 10.0 mi SW 4.6 mph - N/A   Scattered Clouds
6:41 PM 75.2 °F 44.6 °F 34% 30.01 in 10.0 mi WSW 3.5 mph - N/A   Clear
7:30 PM 75 °F 52 °F 34% 30.01 in 5 mi West 6.7 mph - -  
7:47 PM 73.4 °F 50.0 °F 44% 30.05 in 10.0 mi South 5.8 mph - N/A   Clear
8:43 PM 69.8 °F 51.8 °F 53% 30.05 in 10.0 mi Calm Calm - N/A   Clear
9:43 PM 66.2 °F 51.8 °F 60% 30.05 in 10.0 mi Calm Calm - N/A   Clear
10:30 PM 69 °F 53 °F 46% 30.03 in 5 mi WNW 2.2 mph - -  
10:42 PM 64.4 °F 51.8 °F 64% 30.04 in 10.0 mi Calm Calm - N/A   Clear
11:40 PM 64.4 °F 53.6 °F 68% 30.05 in 10.0 mi Calm Calm - N/A   Clear